Regional Weather Roundup
Issued by NWS Northern Indiana

Home | Current Version | Previous Version | Text Only | Print | Product List | Glossary Off
Versions: 1 2 3 4 5 6 7 8 9 10 11 12 13 14 15 16 17 18 19 20 21 22 23 24 25 26 27 28 29 30 31 32 33 34 35 36 37 38 39 40 41 42 43 44 45 46 47 48 49 50

623
ASUS43 KIWX 261010
RWRIWX

KIWX WEATHER ROUNDUP
NATIONAL WEATHER SERVICE NORTHERN INDIANA
600 AM EDT WED JUL 26 2017

NOTE: "FAIR" INDICATES FEW OR NO CLOUDS BELOW 12,000 FEET WITH NO
SIGNIFICANT WEATHER AND/OR OBSTRUCTIONS TO VISIBILITY.

* THESE STATIONS ARE NOT UNDER NWS QUALITY CONTROL. THEY ALSO MAY NOT
  REPORT WEATHER SUCH AS PRECIPITATION OR FOG.

INZ001>027-261100-
NORTHERN INDIANA

CITY           SKY/WX    TMP DP  RH WIND       PRES   REMARKS
GARY*          PTCLDY    66  61  82 SE7       30.12F
VALPARAISO     CLOUDY    64  60  87 SE5       30.14S
MICHIGAN CITY* CLOUDY    64  59  82 S5        30.13F
LAPORTE*       MOCLDY    63  60  90 CALM      30.14F
KNOX*          CLOUDY    63  59  88 S3        30.14S
SOUTH BEND     CLOUDY    65  60  84 S6        30.15R
GOSHEN         CLEAR     60  56  86 CALM      30.16R
MONTICELLO*    CLEAR     63  61  93 SE3       30.13F
LOGANSPORT*    CLEAR     59  59 100 SE3       30.14F
ROCHESTER*     CLEAR     64  61  88 S6        30.14S
WARSAW*        PTCLDY    61  59  94 CALM      30.15R
AUBURN*        CLEAR     59  57  94 CALM      30.16F
FORT WAYNE     PTCLDY    59  57  93 SE5       30.16S
HUNTINGTON*    CLEAR     58  57  96 CALM      30.15F
MARION*        CLEAR     59  57  94 SE3       30.16F

$$
INZ028>050-261100-
CENTRAL INDIANA

CITY           SKY/WX    TMP DP  RH WIND       PRES   REMARKS
LAFAYETTE      CLEAR     62  60  93 E3        30.13R
KOKOMO*        CLEAR     60  59  96 SE3       30.16S
MUNCIE*        CLEAR     63  58  83 SE3       30.16S
INDIANAPOLIS   PTCLDY    63  60  90 SE7       30.13F

$$
MIZ043>046-050>051-056>058-064>065-071>073-077>080-261100-
SOUTHWEST LOWER MICHIGAN

CITY           SKY/WX    TMP DP  RH WIND       PRES   REMARKS
BATTLE CREEK   CLEAR     62  58  86 S8        30.15F
BENTON HARBOR  CLOUDY    64  58  80 SE8       30.11F
COLDWATER*     CLEAR     61  60  97 S6        30.16F
HILLSDALE*     PTCLDY    57  55  94 S3        30.16F
HOLLAND        CLOUDY    63  58  83 S6        30.13S
GRAND RAPIDS   CLOUDY    65  59  81 S8        30.13S
KALAMAZOO      CLEAR     63  56  78 S8        30.15F
STURGIS*       CLEAR     61  58  91 SE3       30.16R
THREE RIVERS*  FAIR      60  57  89 CALM      30.16R

$$
OHZ001>008-015>018-024>025-261100-
NORTHWEST OHIO

CITY           SKY/WX    TMP DP  RH WIND       PRES   REMARKS
WAUSEON*       FAIR      57  57 100 SE5       30.16F
DEFIANCE       CLEAR    N/A N/A N/A CALM      30.16F
FINDLAY        PTCLDY    60  56  86 SE6       30.16F
TOLEDO EXPRESS PTCLDY    58  58 100 CALM      30.16F
TOLEDO METCALF PTCLDY    62  59  90 CALM      30.17F
LIMA           CLEAR     58  58 100 SE5       30.18F

$$
AND FOR LAKE MICHIGAN COASTAL AND OPEN LAKE BUOY OBSERVATIONS

STATION/POSITION TEMP    WIND        PRES    VSBY  WAVE
                 AIR SEA DIR/SP/G                  HT/PER
                 (F)     (DEG/KT/KT) (MB)    (MI)  (FT/S)
CALUMET HARBOR    69     180/  5/  6 1019.1F
MICHIGAN CITY     68     160/  9/ 12   N/A
BURNS HARBOR      67     180/  7/ 15 1020.0
SAINT JOSEPH      65     170/  3/  7 1020.0
SOUTH LAKE BUOY   71 70  200/ 16/ 17 1019.1R         3/ 4
4 MI NW BRIDGMAN  69 72  200/ 14/ 16 1019.4          1/ 2
MICHIGAN CITY     69 74  190/ 12/ 16   N/A           1/ 2

$$
&&




USA.gov is the U.S. government's official web portal to all federal, state and local government web resources and services.